| time (UTC) | temp F | wind direction | speed MPH | gust MPH | rain 1hr in | rain 24hr in | rain mn in | humidity % | barometer mb |
| 20260502222008 | 54 | 357 | 3.0 | 9.0 | 0.03 | 0.42 | 0.42 | 97 | 1010.1 |
| 20260502221508 | 55 | 281 | 3.0 | 7.0 | 0.03 | 0.42 | 0.42 | 97 | 1009.9 |
| 20260502221008 | 55 | 347 | 3.0 | 7.0 | 0.03 | 0.42 | 0.42 | 97 | 1009.8 |
| 20260502220010 | 55 | 13 | 4.0 | 9.0 | 0.03 | 0.42 | 0.42 | 97 | 1009.3 |
| 20260502215509 | 55 | 349 | 3.0 | 10.0 | 0.02 | 0.41 | 0.41 | 97 | 1009.2 |
| 20260502215012 | 55 | 340 | 3.0 | 10.0 | 0.03 | 0.41 | 0.41 | 97 | 1009.1 |
| 20260502214509 | 55 | 22 | 4.0 | 10.0 | 0.03 | 0.41 | 0.41 | 97 | 1009.2 |
| 20260502214008 | 56 | 60 | 3.0 | 10.0 | 0.02 | 0.40 | 0.40 | 97 | 1009.0 |
| 20260502213508 | 56 | 27 | 4.0 | 10.0 | 0.02 | 0.40 | 0.40 | 97 | 1009.0 |
| 20260502213007 | 56 | 53 | 2.0 | 8.0 | 0.02 | 0.40 | 0.40 | 97 | 1009.2 |
| 20260502212509 | 56 | 59 | 0.0 | 8.0 | 0.02 | 0.40 | 0.40 | 97 | 1009.3 |
| 20260502212007 | 56 | 20 | 2.0 | 10.0 | 0.02 | 0.39 | 0.39 | 97 | 1009.2 |
| 20260502211509 | 56 | 25 | 4.0 | 10.0 | 0.02 | 0.39 | 0.39 | 97 | 1009.2 |
| 20260502211006 | 56 | 348 | 1.0 | 7.0 | 0.03 | 0.39 | 0.39 | 97 | 1009.3 |
| 20260502210010 | 56 | 44 | 1.0 | 7.0 | 0.03 | 0.39 | 0.39 | 97 | 1009.3 |
| 20260502205513 | 56 | 65 | 1.0 | 7.0 | 0.04 | 0.39 | 0.39 | 97 | 1009.2 |
| 20260502205009 | 56 | 8 | 3.0 | 7.0 | 0.06 | 0.39 | 0.39 | 97 | 1009.2 |
| 20260502204509 | 56 | 17 | 2.0 | 8.0 | 0.07 | 0.38 | 0.38 | 97 | 1009.3 |
| 20260502204013 | 56 | 63 | 1.0 | 6.0 | 0.09 | 0.38 | 0.38 | 97 | 1009.4 |
| 20260502203509 | 56 | 4 | 1.0 | 9.0 | 0.09 | 0.38 | 0.38 | 97 | 1009.5 |
| 20260502203009 | 56 | 66 | 3.0 | 10.0 | 0.10 | 0.38 | 0.38 | 97 | 1009.4 |
| 20260502202508 | 56 | 64 | 2.0 | 10.0 | 0.10 | 0.38 | 0.38 | 97 | 1009.4 |
| 20260502202008 | 56 | 30 | 2.0 | 6.0 | 0.09 | 0.37 | 0.37 | 97 | 1009.4 |
| 20260502201508 | 56 | 347 | 3.0 | 10.0 | 0.10 | 0.37 | 0.37 | 97 | 1009.2 |
| 20260502201008 | 56 | 15 | 4.0 | 10.0 | 0.11 | 0.37 | 0.37 | 97 | 1009.3 |
| 20260502200002 | 56 | 35 | 3.0 | 12.0 | 0.11 | 0.36 | 0.36 | 97 | 1009.5 |
| 20260502195502 | 56 | 13 | 4.0 | 14.0 | 0.11 | 0.35 | 0.35 | 97 | 1009.4 |
| 20260502195001 | 57 | 82 | 5.0 | 14.0 | 0.11 | 0.34 | 0.34 | 97 | 1009.5 |
| 20260502194600 | 57 | 44 | 2.0 | 7.0 | 0.10 | 0.33 | 0.33 | 97 | 1009.6 |
| 20260502194103 | 57 | 48 | 2.0 | 7.0 | 0.08 | 0.31 | 0.31 | 97 | 1009.7 |
| 20260502193559 | 57 | 326 | 1.0 | 7.0 | 0.06 | 0.28 | 0.28 | 97 | 1009.8 |
| 20260502193108 | 57 | 359 | 3.0 | 6.0 | 0.06 | 0.28 | 0.28 | 97 | 1010.0 |
| 20260502192558 | 57 | 328 | 2.0 | 7.0 | 0.06 | 0.28 | 0.28 | 97 | 1010.0 |
| 20260502192058 | 57 | 60 | 2.0 | 7.0 | 0.06 | 0.28 | 0.28 | 97 | 1009.8 |
| 20260502191602 | 57 | 340 | 2.0 | 7.0 | 0.07 | 0.28 | 0.28 | 97 | 1009.9 |
| 20260502191057 | 58 | 41 | 2.0 | 6.0 | 0.06 | 0.27 | 0.27 | 97 | 1009.8 |
| 20260502190109 | 57 | 40 | 1.0 | 4.0 | 0.05 | 0.26 | 0.26 | 97 | 1010.3 |
| 20260502185556 | 57 | 256 | 1.0 | 4.0 | 0.04 | 0.25 | 0.25 | 97 | 1010.4 |
| 20260502185057 | 57 | 68 | 0.0 | 6.0 | 0.04 | 0.24 | 0.24 | 97 | 1010.3 |
| 20260502184602 | 57 | 337 | 1.0 | 8.0 | 0.03 | 0.23 | 0.23 | 97 | 1010.2 |
| 20260502184057 | 57 | 347 | 2.0 | 8.0 | 0.03 | 0.23 | 0.23 | 97 | 1010.1 |
| 20260502183557 | 57 | 359 | 2.0 | 7.0 | 0.03 | 0.23 | 0.23 | 97 | 1010.0 |
| 20260502183111 | 57 | 90 | 3.0 | 8.0 | 0.04 | 0.23 | 0.23 | 97 | 1009.9 |
| 20260502182558 | 57 | 72 | 2.0 | 10.0 | 0.03 | 0.22 | 0.22 | 97 | 1009.8 |
| 20260502182055 | 57 | 354 | 4.0 | 10.0 | 0.04 | 0.22 | 0.22 | 97 | 1009.8 |
| 20260502181556 | 57 | 60 | 1.0 | 6.0 | 0.05 | 0.22 | 0.22 | 97 | 1009.8 |
| 20260502181054 | 57 | 79 | 2.0 | 8.0 | 0.05 | 0.21 | 0.21 | 97 | 1010.0 |
| 20260502164051 | 57 | 334 | 2.0 | 6.0 | 0.06 | 0.14 | 0.14 | 96 | 1011.4 |
| 20260502163550 | 57 | 64 | 1.0 | 6.0 | 0.05 | 0.13 | 0.13 | 96 | 1011.6 |
| 20260502163055 | 57 | 253 | 0.0 | 6.0 | 0.05 | 0.12 | 0.12 | 96 | 1011.7 |
| 20260502162550 | 57 | 277 | 1.0 | 5.0 | 0.05 | 0.12 | 0.12 | 96 | 1011.6 |
| 20260502162050 | 58 | 344 | 1.0 | 5.0 | 0.04 | 0.11 | 0.11 | 96 | 1011.5 |
| 20260502161601 | 58 | 76 | 1.0 | 3.0 | 0.04 | 0.11 | 0.11 | 96 | 1011.6 |
| 20260502161052 | 58 | 58 | 0.0 | 4.0 | 0.03 | 0.10 | 0.10 | 96 | 1011.8 |
| 20260502152050 | 58 | 352 | 2.0 | 6.0 | 0.00 | 0.07 | 0.07 | 94 | 1011.5 |
| 20260502151547 | 58 | 36 | 3.0 | 6.0 | 0.00 | 0.07 | 0.07 | 93 | 1011.6 |
| 20260502151048 | 59 | 358 | 3.0 | 5.0 | 0.00 | 0.07 | 0.07 | 94 | 1011.4 |
| 20260502123542 | 57 | 52 | 0.0 | 5.0 | 0.01 | 0.08 | 0.07 | 98 | 1011.2 |
| 20260502123042 | 57 | 53 | 0.0 | 6.0 | 0.01 | 0.08 | 0.07 | 98 | 1011.2 |
| 20260502122541 | 57 | 347 | 2.0 | 6.0 | 0.01 | 0.08 | 0.07 | 98 | 1011.2 |
| 20260502122041 | 58 | 37 | 0.0 | 6.0 | 0.02 | 0.08 | 0.07 | 99 | 1011.2 |
| 20260502121548 | 58 | 32 | 1.0 | 7.0 | 0.02 | 0.08 | 0.07 | 99 | 1011.1 |
| 20260502121041 | 58 | 349 | 1.0 | 7.0 | 0.02 | 0.08 | 0.07 | 99 | 1011.1 |
| 20260502115643 | 57 | 10 | 0.0 | 2.0 | 0.02 | 0.08 | 0.07 | 99 | 1011.0 |
| 20260502115040 | 57 | 10 | 0.0 | 3.0 | 0.03 | 0.08 | 0.07 | 99 | 1010.9 |
| 20260502114542 | 57 | 319 | 0.0 | 3.0 | 0.02 | 0.07 | 0.06 | 99 | 1010.8 |
| 20260502114039 | 57 | 344 | 0.0 | 5.0 | 0.02 | 0.07 | 0.06 | 98 | 1010.7 |
| 20260502113539 | 57 | 315 | 0.0 | 5.0 | 0.02 | 0.07 | 0.06 | 98 | 1010.7 |
| 20260502113039 | 57 | 25 | 1.0 | 4.0 | 0.03 | 0.07 | 0.06 | 98 | 1010.6 |
| 20260502112540 | 57 | 49 | 1.0 | 7.0 | 0.03 | 0.07 | 0.06 | 98 | 1010.6 |
| 20260502112039 | 57 | 56 | 2.0 | 7.0 | 0.02 | 0.06 | 0.05 | 98 | 1010.6 |
| 20260502111539 | 57 | 311 | 1.0 | 7.0 | 0.03 | 0.06 | 0.05 | 98 | 1010.7 |
| 20260502111038 | 57 | 11 | 2.0 | 8.0 | 0.03 | 0.06 | 0.05 | 98 | 1010.7 |
| 20260502110038 | 57 | 328 | 0.0 | 7.0 | 0.03 | 0.06 | 0.05 | 98 | 1010.5 |
| 20260502105538 | 57 | 337 | 3.0 | 7.0 | 0.03 | 0.06 | 0.05 | 98 | 1010.4 |
| 20260502105037 | 57 | 39 | 2.0 | 7.0 | 0.02 | 0.05 | 0.04 | 98 | 1010.5 |
| 20260502104537 | 58 | 22 | 1.0 | 5.0 | 0.02 | 0.05 | 0.04 | 98 | 1010.6 |
| 20260502104037 | 58 | 30 | 1.0 | 4.0 | 0.02 | 0.05 | 0.04 | 98 | 1010.6 |
| 20260502103536 | 58 | 37 | 1.0 | 4.0 | 0.02 | 0.05 | 0.04 | 98 | 1010.6 |
| 20260502103041 | 58 | 11 | 0.0 | 3.0 | 0.01 | 0.04 | 0.03 | 98 | 1010.5 |
| 20260502102536 | 59 | 328 | 0.0 | 2.0 | 0.01 | 0.04 | 0.03 | 98 | 1010.5 |
| 20260502102037 | 59 | 335 | 0.0 | 4.0 | 0.01 | 0.04 | 0.03 | 98 | 1010.5 |
| 20260502101544 | 58 | 1 | 0.0 | 3.0 | 0.01 | 0.04 | 0.03 | 99 | 1010.3 |
| 20260502101038 | 58 | 44 | 0.0 | 1.0 | 0.00 | 0.03 | 0.02 | 98 | 1010.3 |
| 20260502091533 | 58 | 303 | 0.0 | 0.0 | 0.00 | 0.03 | 0.02 | 98 | 1010.0 |
| 20260502091033 | 57 | 303 | 0.0 | 0.0 | 0.01 | 0.03 | 0.02 | 98 | 1010.1 |
| 20260502071529 | 57 | 89 | 0.0 | 0.0 | 0.00 | 0.01 | 0.00 | 97 | 1010.5 |
| 20260502071029 | 57 | 89 | 0.0 | 0.0 | 0.00 | 0.01 | 0.00 | 97 | 1010.5 |
| 20260502070024 | 56 | 89 | 0.0 | 0.0 | 0.00 | 0.01 | 0.00 | 97 | 1010.5 |
| 20260502065524 | 56 | 89 | 0.0 | 0.0 | 0.00 | 0.01 | 0.00 | 97 | 1010.6 |
| 20260502065027 | 56 | 89 | 0.0 | 0.0 | 0.00 | 0.01 | 0.00 | 97 | 1010.6 |
| 20260502064523 | 56 | 89 | 0.0 | 0.0 | 0.00 | 0.01 | 0.00 | 97 | 1010.7 |
| 20260502064023 | 56 | 89 | 0.0 | 0.0 | 0.00 | 0.01 | 0.00 | 97 | 1010.7 |
| 20260502063522 | 56 | 89 | 0.0 | 0.0 | 0.00 | 0.01 | 0.00 | 97 | 1010.7 |
| 20260502063028 | 56 | 89 | 0.0 | 1.0 | 0.00 | 0.01 | 0.00 | 97 | 1010.7 |
| 20260502062521 | 56 | 89 | 0.0 | 1.0 | 0.00 | 0.01 | 0.00 | 97 | 1010.7 |
| 20260502062023 | 56 | 89 | 0.0 | 0.0 | 0.00 | 0.01 | 0.00 | 97 | 1010.7 |
| 20260502061519 | 56 | 89 | 0.0 | 0.0 | 0.00 | 0.01 | 0.00 | 97 | 1010.7 |
| 20260502061018 | 56 | 89 | 0.0 | 0.0 | 0.00 | 0.01 | 0.00 | 97 | 1010.7 |
| 20260502060017 | 55 | 89 | 0.0 | 0.0 | 0.00 | 0.01 | 0.00 | 97 | 1010.9 |
| 20260502055517 | 55 | 89 | 0.0 | 0.0 | 0.00 | 0.01 | 0.00 | 97 | 1011.1 |
| 20260502055019 | 55 | 89 | 0.0 | 0.0 | 0.00 | 0.01 | 0.00 | 97 | 1011.2 |
| 20260502054515 | 55 | 89 | 0.0 | 0.0 | 0.00 | 0.01 | 0.00 | 97 | 1011.3 |
| 20260502054015 | 55 | 89 | 0.0 | 0.0 | 0.00 | 0.01 | 0.00 | 97 | 1011.4 |
| 20260502053514 | 55 | 89 | 0.0 | 0.0 | 0.00 | 0.01 | 0.00 | 97 | 1011.4 |
| 20260502053013 | 55 | 89 | 0.0 | 0.0 | 0.00 | 0.01 | 0.00 | 96 | 1011.5 |
| 20260502052513 | 55 | 89 | 0.0 | 0.0 | 0.00 | 0.01 | 0.00 | 96 | 1011.6 |
| 20260502052012 | 55 | 89 | 0.0 | 0.0 | 0.00 | 0.01 | 0.00 | 96 | 1011.5 |
| 20260502051510 | 54 | 89 | 0.0 | 0.0 | 0.00 | 0.01 | 0.00 | 96 | 1011.6 |
| 20260502051010 | 54 | 89 | 0.0 | 0.0 | 0.00 | 0.01 | 0.00 | 96 | 1011.7 |
| 20260502050010 | 54 | 89 | 0.0 | 0.0 | 0.00 | 0.01 | 0.00 | 96 | 1011.7 |
| 20260502045510 | 54 | 89 | 0.0 | 0.0 | 0.00 | 0.01 | 0.00 | 96 | 1011.7 |
| 20260502045013 | 54 | 89 | 0.0 | 0.0 | 0.00 | 0.01 | 0.00 | 96 | 1011.8 |
| 20260502044508 | 54 | 89 | 0.0 | 0.0 | 0.00 | 0.01 | 0.00 | 96 | 1011.9 |
| 20260502044012 | 54 | 89 | 0.0 | 0.0 | 0.00 | 0.01 | 0.00 | 95 | 1011.8 |
| 20260502043507 | 54 | 89 | 0.0 | 0.0 | 0.00 | 0.01 | 0.00 | 95 | 1011.9 |
| 20260502043007 | 54 | 89 | 0.0 | 0.0 | 0.00 | 0.01 | 0.00 | 95 | 1012.0 |
| 20260502042506 | 54 | 89 | 0.0 | 0.0 | 0.00 | 0.01 | 0.00 | 95 | 1012.1 |
| 20260502042006 | 54 | 89 | 0.0 | 0.0 | 0.00 | 0.01 | 0.00 | 95 | 1012.1 |
| 20260502041505 | 54 | 89 | 0.0 | 0.0 | 0.00 | 0.01 | 0.00 | 95 | 1012.1 |
| 20260502041004 | 54 | 89 | 0.0 | 0.0 | 0.00 | 0.01 | 0.00 | 95 | 1012.1 |
| 20260502040003 | 54 | 89 | 0.0 | 0.0 | 0.00 | 0.01 | 0.01 | 95 | 1012.2 |
| 20260502035503 | 54 | 89 | 0.0 | 0.0 | 0.00 | 0.01 | 0.01 | 95 | 1012.3 |
| 20260502035003 | 54 | 89 | 0.0 | 0.0 | 0.00 | 0.01 | 0.01 | 95 | 1012.5 |
| 20260502034508 | 54 | 89 | 0.0 | 0.0 | 0.00 | 0.01 | 0.01 | 95 | 1012.4 |
| 20260502034003 | 54 | 89 | 0.0 | 0.0 | 0.00 | 0.01 | 0.01 | 95 | 1012.4 |
| 20260502033503 | 54 | 89 | 0.0 | 0.0 | 0.00 | 0.01 | 0.01 | 95 | 1012.5 |
| 20260502033003 | 54 | 89 | 0.0 | 1.0 | 0.00 | 0.01 | 0.01 | 95 | 1012.5 |
| 20260502032503 | 54 | 89 | 0.0 | 1.0 | 0.00 | 0.01 | 0.01 | 95 | 1012.5 |
| 20260502032003 | 53 | 89 | 0.0 | 0.0 | 0.00 | 0.01 | 0.01 | 95 | 1012.5 |
| 20260502031502 | 53 | 89 | 0.0 | 0.0 | 0.00 | 0.01 | 0.01 | 95 | 1012.6 |
| 20260502031003 | 53 | 89 | 0.0 | 0.0 | 0.00 | 0.01 | 0.01 | 94 | 1012.7 |
| 20260502030003 | 53 | 89 | 0.0 | 0.0 | 0.00 | 0.01 | 0.01 | 94 | 1012.8 |
| 20260502025503 | 53 | 89 | 0.0 | 0.0 | 0.00 | 0.01 | 0.01 | 94 | 1012.9 |
| 20260502025003 | 53 | 89 | 0.0 | 0.0 | 0.00 | 0.01 | 0.01 | 93 | 1012.9 |
| 20260502024503 | 53 | 89 | 0.0 | 0.0 | 0.00 | 0.01 | 0.01 | 93 | 1012.8 |
| 20260502024003 | 53 | 89 | 0.0 | 0.0 | 0.00 | 0.01 | 0.01 | 93 | 1012.7 |
| 20260502023503 | 53 | 89 | 0.0 | 0.0 | 0.00 | 0.01 | 0.01 | 92 | 1012.7 |
| 20260502023003 | 54 | 89 | 0.0 | 0.0 | 0.00 | 0.01 | 0.01 | 92 | 1012.7 |
| 20260502022506 | 54 | 89 | 0.0 | 0.0 | 0.00 | 0.01 | 0.01 | 92 | 1012.8 |
| 20260502022001 | 54 | 89 | 0.0 | 0.0 | 0.00 | 0.01 | 0.01 | 92 | 1012.8 |
| 20260502021502 | 54 | 89 | 0.0 | 0.0 | 0.00 | 0.01 | 0.01 | 92 | 1012.8 |
| 20260502021002 | 54 | 89 | 0.0 | 0.0 | 0.00 | 0.01 | 0.01 | 91 | 1012.8 |
| 20260502020003 | 54 | 89 | 0.0 | 1.0 | 0.00 | 0.01 | 0.01 | 91 | 1012.9 |
| 20260502015502 | 54 | 89 | 0.0 | 1.0 | 0.00 | 0.01 | 0.01 | 91 | 1013.0 |
| 20260502015004 | 55 | 89 | 0.0 | 1.0 | 0.00 | 0.01 | 0.01 | 90 | 1012.9 |
| 20260502014503 | 55 | 89 | 0.0 | 0.0 | 0.00 | 0.01 | 0.01 | 89 | 1012.7 |
| 20260502014001 | 55 | 89 | 0.0 | 0.0 | 0.00 | 0.01 | 0.01 | 88 | 1012.7 |
| 20260502013501 | 55 | 89 | 0.0 | 0.0 | 0.00 | 0.01 | 0.01 | 88 | 1012.9 |
| 20260502013002 | 56 | 89 | 0.0 | 0.0 | 0.00 | 0.01 | 0.01 | 88 | 1013.1 |
| 20260502012502 | 56 | 89 | 0.0 | 0.0 | 0.00 | 0.01 | 0.01 | 87 | 1013.2 |
| 20260502012002 | 56 | 89 | 0.0 | 1.0 | 0.00 | 0.01 | 0.01 | 86 | 1013.1 |
| 20260502011502 | 56 | 89 | 0.0 | 1.0 | 0.00 | 0.01 | 0.01 | 85 | 1013.0 |
| 20260502011002 | 56 | 89 | 0.0 | 2.0 | 0.00 | 0.01 | 0.01 | 85 | 1012.7 |
| 20260502010105 | 56 | 89 | 0.0 | 3.0 | 0.00 | 0.01 | 0.01 | 85 | 1012.6 |
| 20260502005600 | 56 | 89 | 0.0 | 3.0 | 0.00 | 0.01 | 0.01 | 85 | 1012.6 |
| 20260502005100 | 56 | 95 | 0.0 | 2.0 | 0.00 | 0.01 | 0.01 | 86 | 1012.5 |
| 20260502004604 | 56 | 95 | 0.0 | 2.0 | 0.00 | 0.01 | 0.01 | 86 | 1012.4 |
| 20260502004059 | 56 | 116 | 0.0 | 1.0 | 0.00 | 0.01 | 0.01 | 86 | 1012.4 |
| 20260502003601 | 56 | 121 | 0.0 | 1.0 | 0.00 | 0.01 | 0.01 | 86 | 1012.5 |
| 20260502003100 | 56 | 79 | 0.0 | 1.0 | 0.00 | 0.01 | 0.01 | 85 | 1012.5 |
| 20260502002600 | 56 | 50 | 0.0 | 1.0 | 0.00 | 0.01 | 0.01 | 85 | 1012.6 |
| 20260502002100 | 56 | 50 | 0.0 | 3.0 | 0.00 | 0.01 | 0.01 | 84 | 1012.7 |
| 20260502001604 | 57 | 50 | 0.0 | 3.0 | 0.00 | 0.01 | 0.01 | 84 | 1012.6 |
| 20260502001100 | 57 | 98 | 0.0 | 2.0 | 0.00 | 0.01 | 0.01 | 84 | 1012.6 |
| 20260502000701 | 57 | 122 | 0.0 | 3.0 | 0.00 | 0.01 | 0.01 | 84 | 1012.6 |
| 20260502000001 | 57 | 56 | 0.0 | 1.0 | 0.00 | 0.01 | 0.01 | 84 | 1012.5 |
| 20260501235502 | 57 | 56 | 0.0 | 1.0 | 0.00 | 0.01 | 0.01 | 83 | 1012.6 |
| 20260501235001 | 57 | 56 | 0.0 | 1.0 | 0.00 | 0.01 | 0.01 | 82 | 1012.8 |
| 20260501234501 | 58 | 56 | 0.0 | 3.0 | 0.00 | 0.01 | 0.01 | 81 | 1012.9 |
| 20260501234101 | 58 | 56 | 1.0 | 3.0 | 0.00 | 0.01 | 0.01 | 80 | 1013.0 |
| 20260501233601 | 58 | 100 | 0.0 | 3.0 | 0.00 | 0.01 | 0.01 | 80 | 1012.9 |
| 20260501233110 | 58 | 82 | 0.0 | 2.0 | 0.00 | 0.01 | 0.01 | 80 | 1012.9 |
| 20260501233002 | 58 | 46 | 1.0 | 2.0 | 0.00 | 0.01 | 0.01 | 80 | 1013.0 |
| 20260501232600 | 58 | 55 | 0.0 | 3.0 | 0.00 | 0.01 | 0.01 | 80 | 1013.0 |
| 20260501232100 | 59 | 55 | 1.0 | 3.0 | 0.00 | 0.01 | 0.01 | 79 | 1013.0 |
| 20260501231629 | 59 | 49 | 0.0 | 3.0 | 0.00 | 0.01 | 0.01 | 79 | 1013.0 |
| 20260501231059 | 59 | 49 | 0.0 | 3.0 | 0.00 | 0.01 | 0.01 | 79 | 1013.0 |
| 20260501230700 | 59 | 28 | 0.0 | 3.0 | 0.00 | 0.01 | 0.01 | 78 | 1013.0 |
| 20260501230055 | 59 | 23 | 1.0 | 3.0 | 0.00 | 0.01 | 0.01 | 78 | 1013.1 |
| 20260501225555 | 60 | 88 | 0.0 | 3.0 | 0.00 | 0.01 | 0.01 | 78 | 1013.2 |
| 20260501225055 | 60 | 91 | 0.0 | 5.0 | 0.00 | 0.01 | 0.01 | 76 | 1013.1 |
| 20260501224554 | 60 | 62 | 1.0 | 5.0 | 0.00 | 0.01 | 0.01 | 74 | 1013.1 |
| 20260501224058 | 60 | 103 | 0.0 | 3.0 | 0.00 | 0.01 | 0.01 | 75 | 1013.1 |
| 20260501223558 | 61 | 85 | 0.0 | 5.0 | 0.00 | 0.01 | 0.01 | 76 | 1013.1 |
| 20260501223114 | 60 | 113 | 2.0 | 5.0 | 0.00 | 0.01 | 0.01 | 75 | 1013.1 |
| 20260501222554 | 60 | 82 | 2.0 | 5.0 | 0.00 | 0.01 | 0.01 | 75 | 1013.1 |